EW9902 Weather Reports


time (UTC)temp
F
wind
direction
speed
knots
gust
knots
rain 1hr
in
rain 24hr
in
rain mn
in
humidity
%
barometer
mb
20260509173125 78 265 0.0 0.0 0.01 0.03 0.03 91 1010.0
20260509171522 77 209 0.0 0.0 0.00 0.02 0.02 95 1010.0
20260509170033 76 215 0.0 0.0 0.00 0.02 0.02 98 1010.1
20260509164516 76 213 0.0 0.0 0.00 0.03 0.02 99 1010.2
20260509163023 75 286 0.0 0.0 0.00 0.03 0.02 99 1010.2
20260509161514 75 250 0.0 0.0 0.00 0.03 0.02 99 1010.3
20260509160012 75 109 0.0 0.0 0.01 0.03 0.02 99 1010.3
20260509154515 74 207 0.0 0.0 0.02 0.03 0.02 99 1010.3
20260509153005 74 205 0.0 0.0 0.02 0.03 0.02 99 1010.2
20260509151612 73 163 0.0 0.0 0.02 0.03 0.02 99 1009.9
20260509150056 73 163 0.0 0.0 0.01 0.02 0.01 99 1009.8
20260509144551 73 163 0.0 0.0 0.00 0.01 0.00 99 1010.0
20260509143057 73 163 0.0 0.0 0.00 0.01 0.00 99 1010.0
20260509141546 72 162 0.0 0.0 0.00 0.01 0.00 99 1009.8
20260509140038 72 159 0.0 0.0 0.00 0.01 0.00 99 1010.0
20260509134534 72 132 0.0 0.0 0.00 0.01 0.00 99 1009.1
20260509133033 72 173 0.0 0.0 0.00 0.01 0.00 99 1009.4
20260509131529 71 187 0.0 0.0 0.00 0.01 0.00 99 1009.4
20260509130025 71 187 0.0 0.0 0.00 0.01 0.00 98 1009.1
20260509124519 71 187 0.0 0.0 0.00 0.01 0.00 98 1009.2
20260509123018 71 187 0.0 0.0 0.00 0.01 0.00 98 1009.0
20260509121514 71 190 0.0 0.0 0.00 0.01 0.00 98 1009.1
20260509120019 71 190 0.0 0.0 0.00 0.01 0.00 98 1008.9
20260509114505 71 193 0.0 0.0 0.00 0.01 0.00 98 1009.1
20260509113101 71 193 0.0 0.0 0.00 0.01 0.00 98 1009.3
20260509111604 71 202 0.0 0.0 0.00 0.01 0.00 98 1009.1
20260509110053 71 197 0.0 0.0 0.00 0.01 0.00 98 1009.5
20260509104605 71 197 0.0 0.0 0.00 0.01 0.00 98 1009.4
20260509103045 71 197 0.0 0.0 0.00 0.01 0.00 98 1009.3
20260509101540 71 196 0.0 0.0 0.00 0.01 0.00 98 1008.9
20260509100034 71 196 0.0 0.0 0.00 0.01 0.00 97 1008.8
20260509094534 71 196 0.0 0.0 0.00 0.01 0.00 97 1009.0
20260509093029 71 196 0.0 0.0 0.00 0.01 0.00 97 1009.3
20260509091530 71 196 0.0 0.0 0.00 0.01 0.00 97 1009.4
20260509090027 71 184 0.0 0.0 0.00 0.01 0.00 97 1009.3
20260509084517 71 161 0.0 0.0 0.00 0.01 0.00 97 1009.7
20260509083016 71 161 0.0 0.0 0.00 0.01 0.00 96 1009.4
20260509081522 71 161 0.0 0.0 0.00 0.01 0.00 96 1009.7
20260509080007 71 161 0.0 0.0 0.00 0.01 0.00 96 1010.1
20260509074503 71 161 0.0 0.0 0.00 0.01 0.00 96 1010.3
20260509073100 71 161 0.0 0.0 0.00 0.01 0.00 96 1010.3
20260509071555 71 161 0.0 0.0 0.00 0.01 0.00 96 1010.2
20260509070054 71 161 0.0 0.0 0.00 0.01 0.00 96 1009.8
20260509064545 71 162 0.0 0.0 0.00 0.01 0.00 96 1009.9
20260509063058 71 162 0.0 0.0 0.00 0.01 0.00 96 1009.8
20260509061601 71 162 0.0 0.0 0.00 0.01 0.00 96 1009.7
20260509060049 71 171 0.0 0.0 0.00 0.01 0.00 95 1009.5
20260509054527 71 192 0.0 0.9 0.00 0.01 0.00 95 1009.2
20260509053023 71 171 0.0 0.0 0.00 0.01 0.00 95 1009.4
20260509051519 71 165 0.0 0.0 0.00 0.01 0.00 95 1009.3
20260509050014 71 162 0.0 3.5 0.00 0.01 0.00 95 1009.6
20260509044514 71 163 0.0 0.9 0.00 0.01 0.01 95 1009.4
20260509043013 71 165 0.0 0.9 0.00 0.01 0.01 95 1009.4
20260509041512 71 182 0.0 0.0 0.00 0.01 0.01 95 1009.5
20260509040012 71 148 0.0 0.0 0.00 0.01 0.01 95 1009.3
20260509034512 71 155 0.0 0.0 0.00 0.01 0.01 95 1009.1
20260509033015 71 175 0.0 0.0 0.00 0.01 0.01 95 1009.1
20260509031510 71 165 0.0 0.0 0.00 0.01 0.01 95 1009.2
20260509030011 71 151 0.0 0.0 0.00 0.01 0.01 94 1009.0
20260509024515 71 151 0.0 0.0 0.00 0.01 0.01 93 1008.9
20260509023011 71 150 0.0 0.0 0.00 0.01 0.01 91 1008.6
20260509021509 71 150 0.0 0.0 0.00 0.01 0.01 91 1008.4
20260509020017 72 149 0.0 0.0 0.00 0.01 0.01 91 1008.2
20260509014527 72 149 0.0 0.0 0.00 0.01 0.01 90 1008.0
20260509013008 73 149 0.0 0.0 0.00 0.01 0.01 90 1008.1
20260509011507 73 148 0.0 0.0 0.00 0.01 0.01 89 1008.1
20260509010006 74 151 0.0 0.0 0.00 0.01 0.01 87 1007.9
20260509004507 74 144 0.0 0.0 0.00 0.01 0.01 86 1007.9
20260509003005 75 140 0.0 0.0 0.00 0.01 0.01 85 1008.1
20260509001502 75 138 0.0 0.0 0.00 0.01 0.01 84 1008.1
20260509000100 75 163 0.0 0.0 0.00 0.01 0.01 84 1008.5
20260508234559 76 155 0.0 0.9 0.00 0.01 0.01 83 1008.7
20260508233059 76 169 0.0 0.0 0.00 0.01 0.01 83 1008.9
20260508231603 77 150 0.0 0.0 0.00 0.01 0.01 83 1008.8
20260508230059 77 178 0.0 0.0 0.00 0.01 0.01 83 1008.6
20260508224558 77 163 0.0 0.0 0.00 0.01 0.01 81 1008.9
20260508223056 78 148 0.0 0.0 0.00 0.01 0.01 81 1008.9
20260508221558 78 147 0.0 0.0 0.00 0.01 0.01 81 1008.9
20260508220054 78 147 0.0 0.0 0.00 0.01 0.01 80 1009.0
20260508214554 78 125 0.0 0.0 0.00 0.01 0.01 82 1008.8
20260508213053 79 146 0.0 0.0 0.00 0.01 0.01 78 1008.8
20260508211551 80 148 0.0 0.0 0.00 0.01 0.01 78 1009.0
20260508210049 79 175 0.0 0.0 0.00 0.01 0.01 79 1009.2
20260508204549 79 163 0.0 0.0 0.00 0.01 0.01 79 1009.3
20260508203043 78 123 0.0 0.0 0.00 0.01 0.01 81 1009.6
20260508201547 77 238 0.0 0.0 0.00 0.01 0.01 80 1010.0
20260508200039 78 203 0.0 0.0 0.00 0.01 0.01 79 1010.3
20260508194537 78 162 0.0 0.0 0.00 0.01 0.01 78 1010.3
20260508193037 78 175 0.0 0.0 0.00 0.01 0.01 78 1010.6
20260508191537 77 193 0.0 0.0 0.00 0.01 0.01 79 1010.6
20260508190035 76 186 0.0 0.0 0.00 0.01 0.01 80 1010.6
20260508184529 75 12 0.0 0.0 0.00 0.01 0.01 84 1010.6
20260508183020 72 84 0.0 0.0 0.00 0.01 0.01 86 1010.9
20260508181519 71 60 0.0 0.0 0.00 0.01 0.01 87 1011.1
20260508180013 70 114 0.0 0.0 0.00 0.01 0.01 90 1011.6
20260508174508 68 92 0.0 0.0 0.00 0.01 0.01 92 1011.8